Date,TemperatureHighF,TemperatureAvgF,TemperatureLowF,DewpointHighF,DewpointAvgF,DewpointLowF,HumidityHigh,HumidityAvg,HumidityLow,PressureMaxIn,PressureMinIn,WindSpeedMaxMPH,WindSpeedAvgMPH,GustSpeedMaxMPH,PrecipitationSumIn
2019-1-1,49.1,38.5,27.9,33.7,29.6,24.5,92,74,49,30.42,29.95,3,0,7,0.00
2019-1-2,46.4,38.0,29.5,39.4,25.6,17.6,93,71,40,30.21,29.95,4,1,9,0.00
2019-1-3,32.0,28.8,25.5,21.2,17.3,14.4,74,63,50,30.30,30.18,4,1,6,0.00
2019-1-4,31.5,30.5,29.5,15.8,15.1,14.4,53,52,50,30.30,30.21,2,1,4,0.00
2019-1-5,38.7,31.5,24.3,21.1,17.7,15.3,76,56,46,30.21,29.92,2,0,4,0.00
2019-1-6,42.8,33.8,24.8,35.9,26.6,18.3,93,83,69,30.24,29.98,1,0,2,0.00
2019-1-7,34.2,29.4,24.6,31.8,28.3,22.8,94,91,88,30.36,30.21,0,0,2,0.00
2019-1-8,36.9,29.4,21.9,34.8,28.2,20.2,98,92,81,30.24,29.68,2,0,6,0.00
2019-1-9,44.4,36.7,28.9,37.1,28.1,24.8,92,81,58,29.77,29.59,2,0,3,0.00
2019-1-10,37.8,33.9,30.0,33.9,27.6,24.3,91,78,65,30.03,29.71,5,1,10,0.00
2019-1-11,45.3,33.3,21.4,31.9,19.5,11.5,91,69,39,30.15,30.01,0,0,2,0.00
2019-1-12,49.1,36.4,23.7,27.2,21.2,17.4,79,60,38,30.07,29.83,2,0,4,0.00
2019-1-13,54.5,40.3,26.1,35.6,25.3,20.4,82,58,37,29.86,29.42,2,0,7,0.00
2019-1-14,57.2,43.8,30.4,39.2,25.3,16.5,80,56,28,29.86,29.36,3,1,8,0.00
2019-1-15,53.2,38.3,23.5,33.7,20.3,12.9,86,55,27,30.30,29.83,2,0,4,0.00
2019-1-16,50.4,39.8,29.3,30.4,22.8,13.3,64,50,40,30.01,29.83,3,1,14,0.00
2019-1-17,57.0,51.0,45.0,44.2,37.0,29.1,96,68,48,29.92,29.77,5,1,12,0.00
2019-1-18,45.5,39.2,32.9,44.2,35.5,32.1,98,97,93,30.15,29.77,4,0,7,0.00
2019-1-19,36.9,34.2,31.5,33.3,28.8,23.2,98,85,63,30.12,29.98,1,0,3,0.00
2019-1-20,45.5,35.6,25.7,33.6,26.4,21.8,94,79,47,30.09,29.89,1,0,3,0.00
2019-1-21,37.8,34.0,30.2,33.0,28.2,22.8,94,84,59,30.12,30.07,2,0,3,0.00
2019-1-22,36.7,32.1,27.5,33.2,25.8,22.5,95,84,64,30.07,29.68,3,0,5,0.00
2019-1-23,32.9,29.5,26.1,29.0,25.2,23.2,94,88,76,29.68,29.47,2,0,4,0.00
2019-1-24,37.6,30.4,23.2,27.6,25.1,19.5,94,78,57,29.74,29.56,5,2,10,0.00
2019-1-25,39.6,27.8,16.0,28.1,19.3,11.7,91,77,51,29.89,29.74,0,0,2,0.00
2019-1-26,35.4,23.5,11.5,21.2,15.1,7.8,88,70,50,29.89,29.71,2,0,6,0.00
2019-1-27,44.4,31.9,19.4,32.0,22.6,14.7,87,67,40,29.74,29.39,2,0,6,0.00
2019-1-28,42.3,38.4,34.5,40.8,36.3,31.8,97,94,86,29.59,29.30,2,0,5,0.00
2019-1-29,42.4,37.4,32.4,39.1,34.0,30.6,98,94,82,29.74,29.59,1,0,4,0.00
2019-1-30,42.3,35.9,29.5,36.9,29.7,23.9,98,85,52,29.68,29.50,2,0,6,0.00
2019-1-31,36.9,31.0,25.0,34.1,29.5,23.8,97,94,87,29.65,29.56,2,0,6,0.00
2019-2-1,42.8,37.2,31.6,38.8,34.0,29.8,94,91,83,29.62,29.53,2,0,4,0.00
2019-2-2,46.0,44.2,42.3,44.7,44.2,37.5,95,95,83,29.56,29.47,0,0,0,0.00
2019-2-3,54.3,47.1,39.9,52.6,44.6,38.9,97,94,87,30.03,29.47,3,0,6,0.00
2019-2-4,49.6,39.5,29.5,41.4,31.4,23.4,98,78,47,30.42,30.01,2,0,6,0.00
2019-2-5,40.1,34.0,27.9,31.9,28.5,25.0,90,81,64,30.39,30.30,0,0,0,0.00
2019-2-6,50.9,37.1,23.2,40.1,26.1,21.7,96,80,45,30.33,30.24,0,0,1,0.00
2019-2-7,51.1,35.5,19.9,37.6,23.9,18.0,95,76,38,30.27,30.03,0,0,2,0.00
2019-2-8,50.2,37.8,25.3,37.9,27.9,23.1,94,79,47,30.21,29.50,0,0,1,0.00
2019-2-9,58.1,42.5,27.0,38.3,29.8,24.2,93,74,36,30.12,29.95,1,0,5,0.00
2019-2-10,55.4,42.9,30.4,46.4,37.5,29.0,96,84,58,30.07,29.62,4,1,10,0.00
2019-2-11,50.9,40.8,30.7,45.7,34.1,22.2,97,78,39,30.03,29.62,3,0,10,0.00
2019-2-12,55.4,41.0,26.6,38.3,23.0,14.2,93,62,28,30.45,30.01,6,1,12,0.00
2019-2-13,56.3,42.3,28.4,33.7,25.8,22.7,84,63,36,30.57,30.42,0,0,3,0.00
2019-2-14,62.2,45.5,28.9,37.3,28.5,23.5,89,66,34,30.54,30.45,1,0,4,0.00
2019-2-15,55.6,41.3,27.0,42.1,28.7,24.4,93,81,43,30.51,30.42,1,0,5,0.00
2019-2-18,63.1,60.8,58.5,34.3,32.9,31.6,36,35,34,30.12,30.12,0,0,1,0.00
2019-2-19,68.2,47.6,27.0,41.6,30.1,23.7,93,70,26,30.12,30.03,0,0,0,0.00
2019-2-20,36.7,32.5,28.2,33.7,26.0,23.4,89,84,76,30.18,30.07,0,0,1,0.00
2019-2-21,61.7,46.5,31.3,44.5,34.3,29.0,95,70,38,30.33,30.18,1,0,3,0.00
2019-2-22,58.1,45.8,33.6,48.4,37.6,16.9,93,76,47,30.54,30.12,5,1,10,0.00
2019-2-23,42.8,32.3,21.9,15.2,6.1,-11.1,50,37,10,30.68,30.51,6,1,15,0.00
2019-2-24,48.2,33.2,18.3,21.0,13.3,5.9,66,46,27,30.66,30.54,1,0,3,0.00
2019-2-25,59.0,45.6,32.2,32.1,23.6,15.4,75,49,36,30.57,30.42,0,0,0,0.00
2019-2-26,70.2,51.5,32.9,42.5,24.3,-6.4,83,48,6,30.42,30.24,0,0,0,0.00
2019-2-27,67.1,49.7,32.2,34.6,26.1,20.2,70,48,25,30.30,30.12,0,0,0,0.00
2019-2-28,72.1,50.2,28.2,38.4,22.7,-14.5,80,45,3,30.15,29.80,0,0,0,0.00
2019-3-1,70.2,53.0,35.8,39.1,30.0,22.6,73,48,27,29.89,29.77,0,0,0,0.00
2019-3-2,59.5,45.5,31.6,42.1,35.2,27.2,88,74,49,30.03,29.86,0,0,0,0.00
2019-3-3,67.1,50.3,33.6,48.9,35.2,30.1,96,67,28,30.07,29.92,0,0,0,0.00
2019-3-4,66.2,53.2,40.3,39.8,32.9,26.0,94,47,32,29.86,29.59,0,0,0,0.00
2019-3-5,62.2,49.1,36.0,47.1,36.0,29.6,97,69,34,29.92,29.71,0,0,0,0.00
2019-3-6,63.3,48.2,33.1,43.2,34.8,29.3,91,62,39,30.09,29.83,0,0,0,0.00
2019-3-7,70.3,59.4,48.4,47.1,39.2,31.8,72,54,35,29.86,29.71,0,0,0,0.00
2019-3-8,68.9,56.1,43.3,48.5,39.7,31.2,90,58,29,30.12,29.83,0,0,0,0.00
2019-3-9,65.3,53.7,42.1,43.7,37.2,33.2,84,57,36,30.15,29.95,0,0,0,0.00
2019-3-10,70.9,59.1,47.3,44.8,40.6,37.1,72,48,35,29.98,29.74,0,0,0,0.00
2019-3-11,70.2,66.6,63.1,39.9,37.2,34.3,36,35,33,30.09,29.77,0,0,0,0.00
2019-3-12,67.3,65.1,62.8,37.2,33.9,32.8,34,32,32,30.15,30.07,0,0,0,0.00
2019-3-13,63.1,63.1,63.1,32.8,32.8,32.8,32,32,32,30.15,30.15,0,0,0,0.00
2019-3-14,63.1,63.1,63.1,32.8,32.8,32.8,32,32,32,30.15,30.15,0,0,0,0.00
2019-3-15,63.1,63.1,63.1,32.8,32.8,32.8,32,32,32,30.15,30.15,0,0,0,0.00
2019-3-16,63.1,63.1,63.1,32.8,32.8,32.8,32,32,32,30.15,30.15,0,0,0,0.00